[[{"header":{"parameterUnit":"m.s-1","parameterCategory":1,"la1":30.2992,"la2":30.254,"lo1":-89.0895,"lo2":-89.0443,"dy":0.0025,"dx":0.0025,"nx":19,"ny":19,"refTime":"2026-04-17T21:00:00:Z","depth":0,"parameterNumber":2,"parameterNumberName":"U-component_of_WINDS"},"data":[0,0,0,4.4908,4.4911,4.5049,4.505,4.5247,4.5249,0,0,0,0,0,0,0,0,0,0,0,4.4882,4.4884,4.4908,4.4912,4.5049,4.505,4.5246,4.5249,0,0,0,0,0,0,0,0,0,0,0,4.4881,4.4883,4.4886,4.4912,4.5049,4.505,4.5246,4.5134,0,0,0,0,0,0,0,0,0,0,4.4997,4.4987,4.4883,4.4886,4.4913,4.5049,4.505,4.5128,4.5141,4.5194,0,4.5246,0,4.5251,4.5263,4.5264,0,0,0,4.49,4.4977,4.5001,4.4886,4.4915,4.5049,4.4984,4.5135,4.515,4.5211,4.5249,4.5256,4.5254,4.5265,4.5266,4.561,4.5612,0,0,4.4893,4.4914,4.4991,4.5011,4.4993,4.498,4.4988,4.5143,4.5186,4.525,4.526,4.5257,4.5266,4.5268,4.5608,4.5611,0,0,0,4.4879,4.491,4.4929,4.5004,4.5027,4.4984,4.4994,4.5179,4.5183,4.5262,4.526,4.5267,4.527,4.5606,4.5609,4.5734,0,0,0,4.4874,4.4901,4.4926,4.4941,4.5025,4.5105,4.5026,4.5173,4.519,4.5259,4.5267,4.5272,4.5604,4.5608,4.5725,4.5788,0,0,0,4.4868,4.49,4.4925,4.4942,4.5002,4.5102,4.5115,4.5176,4.5189,4.5264,4.5273,4.5602,4.5607,4.5718,4.5776,4.5882,0,0,0,4.4868,4.5036,4.4928,4.5114,4.5001,4.518,4.5114,4.5246,4.5325,4.5269,4.5604,4.5609,4.5715,4.5768,4.5874,4.5974,4.6018,0,0,4.5091,4.5063,4.5171,4.5079,4.5282,4.5157,4.5378,4.543,4.5418,4.5546,4.5554,4.5728,4.5775,4.5881,4.6266,4.6301,0,0,0,4.5249,4.5326,4.5375,4.5452,4.5497,4.5539,4.5556,4.5575,4.5683,4.5489,4.5797,4.5824,4.5885,4.5931,4.5961,4.6011,4.5632,4.5632,4.5631,4.5593,4.5568,4.5744,4.5736,4.5811,4.5826,4.5884,4.5912,4.5866,4.5939,4.5976,4.6213,4.6268,4.629,4.6342,4.6029,4.603,4.603,4.6031,4.5914,4.6018,4.5952,4.6098,4.6071,4.6193,4.6214,4.6177,4.6284,4.6183,4.6236,4.6124,4.633,4.6373,4.604,4.6038,4.6037,4.6036,4.6035,4.6133,4.6178,4.62,4.6308,4.6393,4.6379,4.6486,4.6458,4.6432,4.6484,4.6517,4.6515,4.6506,4.6503,4.6504,4.6505,4.6505,4.6506,4.6506,4.635,4.6371,4.6464,4.6526,4.6571,4.6626,4.6643,4.6686,4.6725,4.6696,4.6696,4.6639,4.6357,4.6283,4.6519,4.6517,4.6515,4.6514,4.6513,4.6678,4.6599,4.6744,4.6789,4.6858,4.6943,4.6907,4.6996,4.7027,4.708,4.7013,4.681,4.6778,4.6754,4.6693,4.7021,4.7021,4.7021,4.7021,4.686,4.6842,4.6983,4.7056,4.7125,4.7107,4.7268,4.7282,4.7285,4.7302,4.7251,4.717,4.7146,4.7128,4.7096,4.7038,4.7446,4.7447,4.7447,4.7058,4.7046,4.7189,4.7192,4.7243,4.7287,4.7437,4.7522,4.7509,4.7464,4.7314,4.7296,4.7163,4.7123,4.707,4.7021,4.6915,0,0]},{"header":{"parameterUnit":"m.s-1","parameterCategory":1,"la1":30.2992,"la2":30.254,"lo1":-89.0895,"lo2":-89.0443,"dy":0.0025,"dx":0.0025,"nx":19,"ny":19,"refTime":"2026-04-17T21:00:00:Z","depth":0,"parameterNumber":3,"parameterNumberName":"V-component_of_WINDS"},"data":[0,0,0,2.1295,2.1297,2.1407,2.1408,2.1546,2.1547,0,0,0,0,0,0,0,0,0,0,0,2.1263,2.1264,2.1294,2.1297,2.1407,2.1408,2.1545,2.1547,0,0,0,0,0,0,0,0,0,0,0,2.1262,2.1263,2.1265,2.1298,2.1407,2.1408,2.1545,2.1463,0,0,0,0,0,0,0,0,0,0,2.1356,2.1328,2.1263,2.1265,2.1298,2.1407,2.1408,2.1459,2.1468,2.1495,0,2.1522,0,2.1537,2.1556,2.1557,0,0,0,2.1296,2.132,2.1349,2.1265,2.1299,2.1407,2.1357,2.1464,2.1474,2.1507,2.1524,2.1529,2.1539,2.1557,2.1558,2.1721,2.1722,0,0,2.129,2.1282,2.1342,2.1356,2.1341,2.1354,2.1361,2.147,2.1487,2.1524,2.1532,2.1541,2.1558,2.1559,2.172,2.1721,0,0,0,2.1273,2.1278,2.1305,2.135,2.137,2.1357,2.1365,2.1482,2.1491,2.1534,2.1543,2.1559,2.156,2.172,2.1721,2.1752,0,0,0,2.127,2.1268,2.1302,2.1298,2.1368,2.1428,2.1375,2.1484,2.1496,2.1542,2.1559,2.1562,2.1719,2.172,2.1749,2.1768,0,0,0,2.1255,2.1267,2.1283,2.1298,2.1345,2.1427,2.1442,2.1487,2.1502,2.1557,2.1562,2.1718,2.172,2.1747,2.1764,2.1807,0,0,0,2.1237,2.131,2.1283,2.1368,2.1344,2.1446,2.1442,2.1518,2.1568,2.156,2.1719,2.1721,2.1746,2.1761,2.1804,2.1841,2.1856,0,0,2.1325,2.132,2.1371,2.135,2.1454,2.143,2.1538,2.1592,2.1604,2.1681,2.1685,2.175,2.1764,2.1806,2.1945,2.1956,0,0,0,2.1396,2.1431,2.1461,2.1509,2.1552,2.1589,2.1627,2.1647,2.1712,2.1642,2.1778,2.1786,2.1812,2.1829,2.184,2.186,2.1729,2.1729,2.1729,2.1508,2.1519,2.1602,2.1626,2.1672,2.171,2.1747,2.1779,2.1778,2.1809,2.1832,2.1915,2.1936,2.1943,2.1965,2.1854,2.1854,2.1854,2.1854,2.1636,2.1687,2.1682,2.176,2.177,2.1836,2.1873,2.1869,2.193,2.19,2.1922,2.1887,2.1956,2.1975,2.1856,2.1856,2.1856,2.1855,2.1855,2.1709,2.1736,2.1758,2.1827,2.1878,2.1899,2.1957,2.1964,2.1972,2.1994,2.2017,2.2017,2.2016,2.2005,2.2005,2.2006,2.2006,2.2006,2.2006,2.1776,2.1801,2.1849,2.1899,2.1929,2.197,2.2006,2.2036,2.207,2.207,2.207,2.2063,2.1961,2.1934,2.2011,2.201,2.2009,2.2009,2.2009,2.19,2.1872,2.1948,2.1978,2.2035,2.2083,2.2092,2.215,2.2176,2.2203,2.2191,2.2115,2.2111,2.2103,2.208,2.219,2.219,2.219,2.219,2.1961,2.1959,2.2036,2.2083,2.2131,2.2145,2.2226,2.2253,2.2277,2.2293,2.2278,2.2249,2.2241,2.2241,2.2231,2.221,2.235,2.235,2.235,2.2036,2.2039,2.2108,2.2132,2.2176,2.2213,2.2289,2.2341,2.2362,2.2357,2.2304,2.2297,2.2251,2.2236,2.2229,2.2212,2.2174,0,0]}]]